EDT,Max TemperatureF,Mean TemperatureF,Min TemperatureF,Max Dew PointF,MeanDew PointF,Min DewpointF,Max Humidity, Mean Humidity, Min Humidity, Max Sea Level PressureIn, Mean Sea Level PressureIn, Min Sea Level PressureIn, Max VisibilityMiles, Mean VisibilityMiles, Min VisibilityMiles, Max Wind SpeedMPH, Mean Wind SpeedMPH, Max Gust SpeedMPH,PrecipitationIn, CloudCover, Events, WindDirDegrees
2013-6-1,87,73,58,65,60,58,97,70,43,30.09,30.02,29.94,10,10,9,10,3,14,T,4,,195
2013-6-2,74,67,59,64,61,57,93,77,61,29.99,29.94,29.90,10,9,4,16,4,25,0.17,7,Rain,181
2013-6-3,75,65,55,61,57,53,100,79,57,30.07,29.97,29.93,10,8,1,15,3,31,0.01,7,Rain,336
2013-6-4,73,61,49,54,47,29,100,61,22,30.18,30.13,30.07,10,6,0,10,3,14,0.00,3,Fog,338
2013-6-5,82,64,46,59,51,44,93,69,45,30.17,30.10,29.99,10,7,1,15,4,20,0.00,2,,183
2013-6-6,71,66,61,62,59,56,93,77,61,30.00,29.91,29.83,10,9,2,13,4,17,0.30,7,Rain,164
2013-6-7,69,64,58,64,60,55,97,89,81,29.90,29.81,29.74,10,7,0,13,3,16,0.33,7,Fog-Rain,331
2013-6-8,75,65,54,58,55,53,100,77,53,30.18,30.02,29.90,10,6,1,10,2,14,0.03,4,Rain,313
2013-6-9,83,69,54,62,57,52,100,72,43,30.22,30.16,30.06,10,5,0,10,2,13,0.01,5,Fog-Rain,291
2013-6-10,74,67,60,67,61,57,93,77,61,30.09,29.95,29.87,10,9,6,18,3,25,0.28,7,Rain,173
2013-6-11,74,66,58,61,58,56,90,77,64,29.99,29.95,29.90,10,10,5,15,5,21,0.01,7,Rain,273
2013-6-12,83,73,62,67,64,59,97,78,58,30.01,29.95,29.87,10,10,5,14,6,21,0.02,6,Rain,254
2013-6-13,77,69,60,67,61,55,93,81,69,29.91,29.76,29.62,10,8,2,28,7,43,1.49,8,Rain,287
2013-6-14,70,61,52,57,53,51,93,76,59,30.12,29.96,29.84,10,10,7,13,4,22,T,7,,326
2013-6-15,76,63,50,56,52,48,96,70,43,30.19,30.13,30.08,10,6,1,12,2,16,0.00,4,,270
2013-6-16,76,66,55,62,58,52,93,77,60,30.10,30.06,30.02,10,10,7,17,3,25,0.02,6,Rain,246
2013-6-17,80,72,63,65,62,58,93,71,48,30.05,30.01,29.96,10,10,9,9,2,13,0.03,5,Rain,297
2013-6-18,73,67,61,63,60,58,97,79,61,30.00,29.95,29.89,10,7,1,14,2,20,0.22,5,Rain,318
2013-6-19,77,67,56,61,59,55,97,74,50,30.18,30.05,29.99,10,10,8,14,3,22,T,6,Rain,333
2013-6-20,81,67,53,61,55,52,100,71,42,30.28,30.23,30.19,10,5,0,12,1,15,0.00,2,Fog,338
2013-6-21,83,68,53,63,57,52,93,70,46,30.32,30.28,30.22,10,7,1,10,1,17,0.00,2,,310
2013-6-22,84,71,58,64,60,57,100,74,47,30.28,30.23,30.15,10,9,1,13,2,17,0.00,1,,245
2013-6-23,85,71,56,66,59,55,93,69,44,30.25,30.21,30.14,10,6,0,8,2,16,T,2,Fog-Rain,267
2013-6-24,83,71,58,65,62,57,100,77,54,30.22,30.18,30.11,10,10,9,15,2,18,T,2,Rain,198
2013-6-25,86,75,64,66,63,61,93,69,44,30.16,30.09,30.00,10,10,10,12,4,17,0.00,2,,251
2013-6-26,80,72,63,67,64,61,93,76,58,30.03,29.97,29.91,10,10,2,14,3,21,0.20,4,Rain,233
2013-6-27,71,66,61,65,63,60,100,90,79,29.90,29.81,29.74,10,8,1,13,3,21,0.59,7,Rain,259
2013-6-28,80,71,62,66,63,60,93,76,58,29.76,29.68,29.60,10,10,2,25,6,36,0.46,6,Rain,246
2013-6-29,79,67,54,62,58,54,93,72,50,29.76,29.69,29.62,10,8,0,14,3,18,T,3,Fog-Rain,210
2013-6-30,84,71,57,64,60,55,100,73,46,29.86,29.80,29.76,10,8,1,8,2,10,T,5,,300